OpenBCM V1.08-5-g2f4a (Linux)

Packet Radio Mailbox

IZ3LSV

[San Dona' di P. JN]

 Login: GUEST





  
I0OJJ  > KEPS     24.03.25 02:25l 328 Lines 15599 Bytes #4 (0) @ AMSAT
BID : ORB25083.1
Read: GUEST
Subj: 2Line Orbital Elements 25083.AMSAT
Path: IZ3LSV<I0OJJ
Sent: 250324/0025z @:I0OJJ.ITA.EU [Rome] obcm1.08-6-g5b69
From: I0OJJ @ I0OJJ.ITA.EU (Gustavo)
To:   KEPS @ AMSAT
X-Info: This message was generated automatically


QST de W1STR

AMSAT Orbital Elements for Amateur Satellites in TLE Format
From Orbital Analysis Office
New England Sci-Tech STEM Education Center
Natick, MA March 24, 2025
To all radio amateurs


These element sets describe the orbits of various satellites 
in use by the amateur radio community. For details see:
www.amsat.org/keplerian-elements-formats/

A daily update of element sets is available at:
www.amsat.org/tle/daily-bulletin.txt
or without bulletin text:
www.amsat.org/tle/dailytle.txt


AO-07
1 07530U 74089B   25082.54721816 -.00000008  00000-0  23846-3 0  9999
2 07530 101.9955  85.9758 0011887 271.1113 258.4751 12.53687472304048
UO-11
1 14781U 84021B   25082.19009460  .00006562  00000-0  70294-3 0  9996
2 14781  97.7458  50.1684 0006390 227.1311 132.9370 14.88986553189978
AO-27
1 22825U 93061C   25082.87341868  .00000497  00000-0  20696-3 0  9996
2 22825  98.7458 144.0114 0008021 348.3319  11.7676 14.30757938642871
FO-29
1 24278U 96046B   25082.45439000  .00000004  00000-0  40053-4 0  9990
2 24278  98.5838 346.6044 0349870 184.8194 174.9545 13.53241371412203
NOAA-15
1 25338U 98030A   25082.83876842  .00000643  00000-0  28219-3 0  9992
2 25338  98.5441 109.8125 0009522 221.6905 138.3551 14.26920110397318
GO-32
1 25397U 98043D   25082.85566530  .00000448  00000-0  21428-3 0  9991
2 25397  98.9637  60.3817 0002382  80.0425 280.1022 14.24280231387447
ISS
1 25544U 98067A   25082.81935730  .00030504  00000-0  54208-3 0  9997
2 25544  51.6367   9.8496 0003778  44.5756 315.5536 15.49908264501925
NO-44
1 26931U 01043C   25082.05615398  .00000746  00000-0  31045-3 0  9996
2 26931  67.0523 330.8581 0005628 267.7216  92.3242 14.31668216225869
SO-50
1 27607U 02058C   25082.72105081  .00005842  00000-0  75149-3 0  9996
2 27607  64.5533  80.8102 0047315 352.8934   7.1494 14.81217731197909
CO-55
1 27844U 03031E   25082.47302323  .00001383  00000-0  62233-3 0  9997
2 27844  98.6795  91.7477 0010670  58.5195 301.7025 14.23893880127524
CO-57
1 27848U 03031J   25081.96344608  .00001127  00000-0  51715-3 0  9995
2 27848  98.6821  91.3089 0010713  75.0567 285.1797 14.23241786127183
RS-22
1 27939U 03042A   25082.85927706  .00004590  00000-0  73869-3 0  9994
2 27939  98.3201 250.4752 0010537 254.1807 215.3643 14.72009824149390
NOAA-18
1 28654U 05018A   25082.83315809  .00000610  00000-0  34684-3 0  9998
2 28654  98.8452 163.1782 0013795 354.5413   5.5607 14.13553103 22767
CO-58
1 28895U 05043F   25081.80789611  .00007892  00000-0  13060-2 0  9998
2 28895  98.2355 225.2509 0014777 192.9814 167.1013 14.70513847 35367
CO-65
1 32785U 08021C   25082.49297146  .00015194  00000-0  11270-2 0  9998
2 32785  97.7778  53.1803 0012697 110.2278 250.0313 15.03108334917412
AAUSAT2
1 32788U 08021F   25082.72450541  .00225679  00000-0  28029-2 0  9998
2 32788  97.6063  76.6225 0004820 129.4160 230.7523 15.59226653921240
CO-66
1 32791U 08021J   25081.97185107  .00036899  00000-0  19290-2 0  9995
2 32791  97.7229  60.4361 0007074  84.5166 275.6873 15.15750809918577
RS-30
1 32953U 08025A   25082.90047669  .00000060  00000-0  36298-3 0  9992
2 32953  82.4975 275.5000 0019022 213.2066 146.7822 12.43160610763888
NOAA-19
1 33591U 09005A   25082.82688372  .00000564  00000-0  32446-3 0  9993
2 33591  99.0055 147.0714 0013227 219.7144 140.3060 14.13319428831123
SRMSAT
1 37841U 11058D   25082.54039050  .00000842  00000-0  31421-3 0  9999
2 37841  19.9718 266.7917 0011698 286.7584 104.2963 14.11393110694292
ZACUBE-1
1 39417U 13066B   25082.60616169  .00015926  00000-0  14147-2 0  9994
2 39417  97.7709  40.1289 0043732 314.3739  45.3902 14.95477547613251
Delfi-N3xt
1 39428U 13066N   25082.74183244  .00018075  00000-0  19008-2 0  9993
2 39428  97.8362   1.3458 0085280 256.5665 102.6035 14.86788844607684
GOMX-1
1 39430U 13066Q   25082.88994689  .00006227  00000-0  97252-3 0  9998
2 39430  97.6954 306.2953 0134979  81.1348 280.5113 14.67163579604017
LO-74
1 39440U 13066AA  25082.81990585  .00012851  00000-0  13223-2 0  9998
2 39440  97.8422  28.0018 0065405  76.8597 283.9907 14.88831187611066
AO-73
1 39444U 13066AE  25082.84859387  .00020938  00000-0  16326-2 0  9991
2 39444  97.7626  44.6274 0039379 290.3023  69.3970 15.00580651612510
DTUSAT-2
1 40030U 14033W   25082.83398269  .00020241  00000-0  13682-2 0  9994
2 40030  98.0485  51.0148 0008261 338.4494  21.6383 15.06568319585199
EO-80
1 40032U 14033Y   25082.85814895  .00019960  00000-0  13465-2 0  9991
2 40032  98.0365  50.8017 0006657 262.3888  97.6582 15.06655246585188
LILACSAT-2
1 40908U 15049K   25082.85245476  .00025374  00000-0  71427-3 0  9993
2 40908  97.5143 101.4206 0011852  83.2027 277.0565 15.36384332526288
IO-86
1 40931U 15052B   25038.81889873  .00001817  00000-0  15548-3 0  9993
2 40931   6.0001 108.1159 0012838 187.7041 172.2889 14.78568669506492
Horyu-4
1 41340U 16012D   25082.89694696  .00043574  00000-0  13498-2 0  9996
2 41340  30.9975 292.7497 0008690 337.8703  22.1565 15.32189920500849
Lapan A3
1 41603U 16040E   25082.84389436  .00009245  00000-0  32977-3 0  9998
2 41603  97.1403  90.5327 0011225 176.3501 183.7824 15.29038482485901
CAS-2T
1 41847U 16066G   25082.83313842  .00004256  00000-0  61064-3 0  9999
2 41847  98.4249 157.9654 0347986  53.8006 309.4836 14.43211033439807
CAS-4B
1 42759U 17034B   25082.83997735  .00082292  00000-0  13038-2 0  9990
2 42759  43.0104  61.6413 0016091 109.4767 250.7834 15.52303828430477
CAS-4A
1 42761U 17034D   25082.85640918  .00087002  00000-0  13447-2 0  9991
2 42761  43.0142  59.3253 0017456 115.0690 245.1986 15.52939754430493
TechnoSat
1 42829U 17042E   25082.73459806  .00010084  00000-0  79439-3 0  9996
2 42829  97.3911 255.1790 0013096 179.9239 180.1990 15.00902568419047
AO-91
1 43017U 17073E   25082.88305719  .00019421  00000-0  10182-2 0  9992
2 43017  97.5383 315.6562 0179881  71.1862 290.8780 15.02823489397532
S-Net D
1 43186U 18014G   25081.97496128  .00016611  00000-0  10070-2 0  9993
2 43186  97.5689 345.7163 0010871 127.4165 232.8056 15.10584784390506
S-Net B
1 43187U 18014H   25082.70805165  .00013504  00000-0  81947-3 0  9991
2 43187  97.5693 346.4089 0011755 121.5290 238.7089 15.10589266390616
S-Net A
1 43188U 18014J   25082.70426018  .00013713  00000-0  83158-3 0  9996
2 43188  97.5701 346.5453 0011599 122.3104 237.9250 15.10610691390610
S-Net C
1 43189U 18014K   25082.71028542  .00013639  00000-0  82729-3 0  9998
2 43189  97.5718 346.5520 0013322 116.4805 243.7793 15.10585510389168
Ten-Koh
1 43677U 18084G   25082.36486638  .00010213  00000-0  82603-3 0  9998
2 43677  98.0971 251.5010 0010520 167.4373 192.7113 14.99942527348513
PO-101
1 43678U 18084H   25082.84225214  .00007389  00000-0  63463-3 0  9996
2 43678  98.0998 256.0450 0008314 175.8953 184.2338 14.97739841348747
QO-100
1 43700U 18090A   25082.89211377  .00000145  00000-0  00000+0 0  9996
2 43700   0.0232 177.4551 0001423 217.2853 133.8530  1.00269364 23404
MinXSS-2
1 43758U 18099A   25081.74804784  .00044159  00000-0  19118-2 0  9997
2 43758  97.5104 147.6757 0013447  78.1444 282.1300 15.22194112344969
AO-95
1 43770U 18099N   25082.12098250  .00027914  00000-0  14872-2 0  9999
2 43770  97.5011 141.1403 0012483 123.9759 236.2661 15.15096670344663
RANGE-A
1 43773U 18099R   25082.60007781  .00013763  00000-0  89626-3 0  9991
2 43773  97.4599 133.2723 0013390 100.1631 260.1108 15.07977161344461
MOVE-II
1 43780U 18099Y   25082.75929152  .00139921  00000-0  24813-2 0  9991
2 43780  97.4743 154.1028 0002297 105.7389 254.4115 15.49730538345652
SNUSat 2
1 43782U 18099AA  25082.14825335  .00023991  00000-0  13632-2 0  9990
2 43782  97.4708 138.5374 0013721  69.8863 290.3843 15.12816207344638
SnugLite
1 43784U 18099AC  25082.10140953  .00028110  00000-0  14871-2 0  9998
2 43784  97.4521 137.9123 0004743  80.4837 279.6931 15.15402117344746
ITASat 1
1 43786U 18099AE  25082.73497480  .00017742  00000-0  10484-2 0  9994
2 43786  97.4674 138.8367 0016480 114.7068 245.5880 15.11431729344691
EAGLET 1
1 43790U 18099AJ  25082.61644281  .00012684  00000-0  82492-3 0  9998
2 43790  97.4872 138.9105 0013992  97.6761 262.6057 15.08039598344310
ESEO
1 43792U 18099AL  25082.54552421  .00006614  00000-0  50601-3 0  9999
2 43792  97.4598 133.1138 0012422  71.2085 289.0486 15.02159376344101
CSIM
1 43793U 18099AM  25082.73785657  .00142136  00000-0  24752-2 0  9997
2 43793  97.4931 156.1702 0003761  44.5521 315.6032 15.50236018345497
JO-97
1 43803U 18099AX  25082.89028634  .00027140  00000-0  13233-2 0  9990
2 43803  97.4768 142.7510 0008695  65.3151 294.8988 15.18256178344979
Suomi 100
1 43804U 18099AY  25081.73289015  .00026128  00000-0  13501-2 0  9998
2 43804  97.4832 141.1050 0013928  67.2723 292.9981 15.16176047344746
ISAT
1 43879U 18111D   25082.50403699  .00043449  00000-0  17009-2 0  9999
2 43879  97.5995 355.3788 0012232 107.8334 252.4239 15.25608702341777
UWE-4
1 43880U 18111E   25082.69383544  .00034877  00000-0  14975-2 0  9991
2 43880  97.5935 354.5465 0015055 117.7951 242.4814 15.22511850339765
Sparrow
1 43881U 18111F   25082.74003298  .00041292  00000-0  15689-2 0  9995
2 43881  97.6130 358.2153 0009388 136.6131 223.5847 15.26644674339896
Prox-1
1 44339U 19036A   25082.75711901  .00025267  00000-0  34146-2 0  9992
2 44339  23.9960 212.1964 0006182 266.7860  93.1929 14.77583272306571
SONATE
1 44400U 19038Q   25082.61433558  .00135575  00000-0  12924-2 0  9991
2 44400  97.7045 100.7451 0010063 160.1756 199.9896 15.66294435317276
Taurus 1
1 44530U 19059C   25082.80559755  .00020007  00000-0  38053-2 0  9991
2 44530  98.5952 218.6358 0009785 267.8479  92.1601 14.64109267292553
